AirNav   TITAN Aviation Fuels
 
 1377 users online  

NH17 Zim Airport
Mason, New Hampshire, USA

GOING TO MASON?


FAA INFORMATION EFFECTIVE 02 DECEMBER 2021

Location

FAA Identifier: NH17
Lat/Long: 42-43-39.2400N 071-43-03.4000W
42-43.654000N 071-43.056667W
42.7275667,-71.7176111
(estimated)
Elevation: 560 ft. / 171 m (estimated)
Variation: 15W (1985)
From city: 5 miles SE of MASON, NH
Time zone: UTC -5 (UTC -4 during Daylight Saving Time)
Zip code: 03048

Airport Operations

Airport use: Private use. Permission required prior to landing
Activation date: 11/1988
Control tower: no
ARTCC: BOSTON CENTER
FSS: BANGOR FLIGHT SERVICE STATION
Attendance: UNATNDD
Wind indicator: yes
Segmented circle: no
Landing fee: yes

Airport Communications

WX AWOS-3PT at ASH (10 nm E): 125.1 (603-578-0473)
WX ASOS at FIT (11 nm S): 135.175 (978-343-9121)
WX ASOS at AFN (13 nm W): 135.875 (603-532-6195)
WX ASOS at MHT (17 nm NE): 119.55 (603-621-1766)

Nearby radio navigation aids

VOR radial/distance  VOR name  Freq  Var
MHTr256/17.5MANCHESTER VOR/DME114.4015W
GDMr068/18.6GARDNER VOR/DME110.6014W
CONr207/30.2CONCORD VOR/DME112.9015W
BOSr321/39.1BOSTON VOR/DME112.7016W

 
NDB name  Hdg/Dist  Freq  Var  ID
FITZY240/11.720915WMJ -- .---

Airport Services

Runway Information

Runway 1/19

Dimensions: 1500 x 150 ft. / 457 x 46 m
Surface: turf
RUNWAY 1  RUNWAY 19
Traffic pattern: leftright

Airport Ownership and Management from official FAA records

Ownership: Privately-owned
Owner: ROBERT V. ZIMINSKY
227 CAMPBELL MILL ROAD
MASON, NH 03048
Phone 603-878-2224
Manager: ROBERT V. ZIMINSKY
227 CAMPBELL MILL ROAD
MASON, NH 03048
Phone 603-878-2224

Airport Operational Statistics

Aircraft based on the field: 1
Single engine airplanes: 1
    

Additional Remarks

A52-01 NO OBSTRUCTIONS FIRST 1000 FT.
ALL TRAFFIC REMAIN EAST OF THE RY.
1000 FT CLEARWAY AER 01.
FOR CD CTC BOSTON APCH AT 603-594-5551.

Instrument Procedures

There are no published instrument procedures at NH17.

Some nearby airports with instrument procedures:

KASH - Boire Field Airport (10 nm E)
KFIT - Fitchburg Municipal Airport (11 nm S)
KAFN - Jaffrey/Silver Ranch Airport (13 nm W)
KGDM - Gardner Municipal Airport (17 nm SW)
KMHT - Manchester Boston Regional Airport (17 nm NE)
6B6 - Minute Man Air Field (18 nm SE)
 
Loc | Ops | Rwys | IFR | FBO | Links
Com | Nav | Svcs | Stats | Notes
Area around NH17 (Zim Airport)
 
Road maps at: MapQuest Bing Google
 
Aerial photo
WARNING: Photo may not be current or correct
Aerial photo of NH17 (Zim Airport)
Do you have a better or more recent aerial photo of Zim Airport that you would like to share? If so, please send us your photo.

 
Sectional chart

 
Airport distance calculator
Flying to Zim Airport? Find the distance to fly.

From to NH17

Sunrise and sunset
Times for 03-Dec-2021
 Local
(UTC-5)
 Zulu
(UTC)
Morning civil twilight06:2911:29
Sunrise07:0112:01
Sunset16:1321:13
Evening civil twilight16:4421:44

Current date and time
Zulu (UTC)  03-Dec-2021 21:09:25
Local (UTC-5)  03-Dec-2021 16:09:25
 
METAR
KASH 
9nm E 
032056Z 28005G16KT 10SM CLR 03/M11 A2987 RMK AO2 SLP122 T00281111 53024
KFIT 
11nm S 
032052Z AUTO 29009KT 260V320 10SM 03/M11 A2987 RMK AO2 SLP119 60000 T00281106 53024
KAFN 
13nm W 
032052Z AUTO 27008KT 240V310 10SM CLR 01/M11 A2984 RMK AO2 SLP119 T00111111 53022
KMHT 
18nm NE 
032053Z 29012G24KT 10SM CLR 03/M12 A2985 RMK AO2 SLP123 T00281122 53026
TAF
KMHT 
18nm NE 
031915Z 0319/0418 29015G20KT P6SM SCT050 FM040000 28008KT P6SM SKC
NOTAMs
Click for the latest NOTAMs
NOTAMs are issued by the DoD/FAA and will open in a separate window not controlled by AirNav.

 

 
 

Would you like to see your business listed on this page?

 If your business provides an interesting product or service to pilots, flight crews, aircraft, or users of the Zim Airport, you should consider listing it here.  To start the listing process, click on the button below
 
Add a business
 

Other Pages about Zim Airport

Update a link
 
Copyright © AirNav, LLC. All rights reserved. Privacy Policy  Contact